Location: Vancouver
(49.2500°N, 123.1330°W)
Time: 12:08:51
(UTC-07:00)

Iridium 35 - Visible Passes

Search period start: 27 March 2015 00:00
Search period end: 06 April 2015 00:00
Orbit: 776 x 779 km, 86.4° (Epoch: 26 March)

Date Brightness Start Highest point End Pass type
(mag) Time Alt. Az. Time Alt. Az. Time Alt. Az.
27 Mar 7.4 21:35:44 10° NNW 21:39:50 23° W 21:43:49 10° SW visible
28 Mar 6.6 21:01:41 10° NNW 21:06:31 38° W 21:11:18 10° SSW visible
29 Mar 5.5 20:27:54 10° N 20:33:06 66° W 20:38:16 10° S visible
30 Mar 7.9 21:36:22 10° NW 21:39:45 17° WNW 21:42:57 10° WSW visible
31 Mar 7.2 21:02:03 10° NNW 21:06:30 28° W 21:10:51 10° SW visible
01 Apr 6.2 20:28:07 10° NNW 20:33:09 47° W 20:38:07 10° SSW visible
02 Apr 8.2 21:37:26 10° NW 21:39:38 12° WNW 21:41:35 10° W visible
03 Apr 7.8 21:02:33 10° NNW 21:06:26 21° W 21:10:11 10° SW visible
04 Apr 7.0 20:28:25 10° NNW 20:33:09 35° W 20:37:47 10° SSW visible
